User: anonymous
Location: Oshawa
(43.9000°N, 78.8670°W)
Time: 02:13:28
(UTC-04:00)
Language:

Envisat - Orbit

View from above orbital plane
View from above orbital plane
View from above satellite
View from above satellite

Ground track
Ground track

The orbit data is extracted from the following two-line orbital elements,

1 27386U 02009A   14113.86882354  .00000126  00000-0  56040-4 0   608
2 27386 098.3872 180.5296 0001308 108.7530 304.7884 14.37702682635774
Epoch (UTC): 23 April 2014 20:51:06
Eccentricity: 0.0001308
inclination: 98.3872°
perigee height: 765 km
apogee height: 767 km
right ascension of ascending node: 180.5296°
argument of perigee: 108.7530°
revolutions per day: 14.37702682
mean anomaly at epoch: 304.7884°
orbit number at epoch: 63577

The dashed part of the orbit path shows where the satellite is in the earth's shadow,  

DLR